This demonstration page uses our WeatherBlox Daily Observations layout. Learn more.

Left ArrowRight Arrow

53.43946, 10.369

Hourly Observations for October 7, 2022

Temp ( °F °C ) Dew Point ( °F °C ) Humidity (%) Winds ( mph kmh ) Pressure ( in mb ) Visibility ( mi km ) Precip ( " mm )
12:20 am 00:20 Mostly Clear 48 9 45 7 87 87 SW 8 13 30.33 1027 6 10 0.00 0.00
12:50 am 00:50 Mostly Clear 48 9 45 7 87 87 SW 6 9 30.33 1027 6 10 0.00 0.00
1:20 am 01:20 Mostly Clear 48 9 43 6 81 81 SW 7 11 30.33 1027 6 10 0.00 0.00
1:50 am 01:50 Mostly Clear 48 9 43 6 81 81 SW 8 13 30.30 1026 6 10 0.00 0.00
2:20 am 02:20 Mostly Clear 46 8 43 6 87 87 SSW 8 13 30.30 1026 6 10 0.00 0.00
2:50 am 02:50 Mostly Clear 46 8 43 6 87 87 SSW 6 9 30.30 1026 6 10 0.00 0.00
3:20 am 03:20 Mostly Clear 46 8 43 6 87 87 SSW 6 9 30.30 1026 6 10 0.00 0.00
3:50 am 03:50 Mostly Clear 46 8 43 6 87 87 S 5 7 30.27 1025 6 10 0.00 0.00
4:20 am 04:20 Mostly Clear 46 8 43 6 87 87 SE 5 7 30.27 1025 6 10 0.00 0.00
4:50 am 04:50 Mostly Clear 45 7 43 6 93 93 SSE 7 11 30.27 1025 6 10 0.00 0.00
5:20 am 05:20 Mostly Clear 45 7 43 6 93 93 SSE 7 11 30.24 1024 6 10 0.00 0.00
5:50 am 05:50 Mostly Clear 45 7 43 6 93 93 SSE 7 11 30.24 1024 6 10 0.00 0.00
6:20 am 06:20 Mostly Clear 46 8 43 6 87 87 S 8 13 30.24 1024 6 10 0.00 0.00
6:50 am 06:50 Mostly Clear 46 8 43 6 87 87 S 6 9 30.24 1024 6 10 0.00 0.00
7:20 am 07:20 Mostly Clear 46 8 43 6 87 87 S 8 13 30.24 1024 6 10 0.00 0.00
7:50 am 07:50 Mostly Sunny 46 8 43 6 87 87 S 8 13 30.21 1023 6 10 0.00 0.00
8:20 am 08:20 Mostly Sunny 46 8 43 6 87 87 S 8 13 30.21 1023 6 10 0.00 0.00
8:50 am 08:50 Mostly Sunny 48 9 43 6 81 81 SSE 9 15 30.21 1023 6 10 0.00 0.00
9:20 am 09:20 Mostly Sunny 52 11 45 7 76 76 SSE 8 13 30.21 1023 6 10 0.00 0.00
9:50 am 09:50 Mostly Sunny 54 12 45 7 71 71 SSW 12 19 30.21 1023 6 10 0.00 0.00
10:20 am 10:20 Mostly Cloudy 54 12 46 8 76 76 SSW 12 19 30.21 1023 6 10 0.00 0.00
10:50 am 10:50 Partly Cloudy 55 13 46 8 72 72 SSW 13 20 30.18 1022 6 10 0.00 0.00
11:20 am 11:20 Mostly Cloudy 55 13 46 8 72 72 SW 14 22 30.18 1022 6 10 0.00 0.00
11:50 am 11:50 Mostly Sunny 57 14 48 9 72 72 SW 16 26 30.18 1022 6 10 0.00 0.00
12:20 pm 12:20 Mostly Sunny 59 15 48 9 67 67 SW 21 33 30.15 1021 6 10 0.00 0.00
12:50 pm 12:50 Mostly Sunny 61 16 50 10 68 68 SW 16 26 30.15 1021 6 10 0.00 0.00
1:20 pm 13:20 Mostly Sunny 61 16 48 9 63 63 SW 20 31 30.15 1021 6 10 0.00 0.00
1:50 pm 13:50 Mostly Sunny 61 16 48 9 63 63 SW 20 31 30.12 1020 6 10 0.00 0.00
2:20 pm 14:20 Mostly Sunny 61 16 48 9 63 63 SW 17 28 30.12 1020 6 10 0.00 0.00
2:50 pm 14:50 Mostly Sunny 63 17 48 9 59 59 SW 15 24 30.09 1019 6 10 0.00 0.00
3:20 pm 15:20 Mostly Sunny 63 17 48 9 59 59 SW 17 28 30.09 1019 6 10 0.00 0.00
3:50 pm 15:50 Mostly Sunny 63 17 48 9 59 59 SW 15 24 30.09 1019 6 10 0.00 0.00
4:20 pm 16:20 Mostly Cloudy 63 17 48 9 59 59 SW 17 28 30.06 1018 6 10 0.00 0.00
4:50 pm 16:50 Mostly Cloudy 63 17 48 9 59 59 SW 17 28 30.06 1018 6 10 0.00 0.00
5:20 pm 17:20 Mostly Sunny 61 16 48 9 63 63 SSW 13 20 30.03 1017 6 10 0.00 0.00
5:50 pm 17:50 Mostly Cloudy 61 16 48 9 63 63 SW 12 19 30.03 1017 6 10 0.00 0.00
6:20 pm 18:20 Cloudy 61 16 48 9 63 63 SSW 12 19 30.03 1017 6 10 0.00 0.00
6:50 pm 18:50 Mostly Clear 61 16 46 8 59 59 SSW 13 20 30.03 1017 6 10 0.00 0.00
7:20 pm 19:20 Mostly Clear 61 16 48 9 63 63 SSW 12 19 30.03 1017 6 10 0.00 0.00
7:50 pm 19:50 Mostly Clear 59 15 46 8 63 63 SSW 12 19 30.03 1017 6 10 0.00 0.00
8:20 pm 20:20 Mostly Clear 59 15 46 8 63 63 SSW 14 22 30.03 1017 6 10 0.00 0.00
8:50 pm 20:50 Mostly Clear 59 15 46 8 63 63 SSW 13 20 30.00 1016 6 10 0.00 0.00
9:20 pm 21:20 Mostly Clear 59 15 46 8 63 63 SSW 10 17 30.00 1016 6 10 0.00 0.00
9:50 pm 21:50 Mostly Clear 57 14 46 8 67 67 SSW 13 20 30.00 1016 6 10 0.00 0.00
10:20 pm 22:20 Mostly Clear 55 13 46 8 72 72 SSW 12 19 30.00 1016 6 10 0.00 0.00
10:50 pm 22:50 Mostly Clear 55 13 46 8 72 72 SSW 12 19 29.97 1015 6 10 0.00 0.00
11:20 pm 23:20 Mostly Clear 55 13 46 8 72 72 SSW 14 22 29.97 1015 6 10 0.00 0.00
11:50 pm 23:50 Mostly Clear 55 13 46 8 72 72 SW 13 20 29.97 1015 6 10 0.00 0.00

Powered by AerisWeather